TimeMST,TemperatureF,Dew PointF,Humidity,Sea Level PressureIn,VisibilityMPH,Wind Direction,Wind SpeedMPH,Gust SpeedMPH,PrecipitationIn,Events,Conditions,WindDirDegrees,DateUTC
12:55 AM,46.0,30.9,56,29.95,10.0,South,5.8,-,N/A,,Clear,180,2013-02-21 07:55:00
1:55 AM,44.1,30.9,60,29.96,10.0,SSE,4.6,-,N/A,,Clear,150,2013-02-21 08:55:00
2:55 AM,43.0,30.0,60,29.96,10.0,South,3.5,-,N/A,,Clear,180,2013-02-21 09:55:00
3:00 AM,-9999,-9999,N/A,-9999,-9999.0,North,-9999.0,-,N/A,,Unknown,0,2013-02-21 10:00:00
3:55 AM,43.0,30.0,60,29.96,10.0,SSE,6.9,-,N/A,,Clear,160,2013-02-21 10:55:00
4:55 AM,44.1,28.9,55,29.95,10.0,South,5.8,-,N/A,,Clear,170,2013-02-21 11:55:00
5:00 AM,-9999,-9999,N/A,-9999,-9999.0,North,-9999.0,-,N/A,,Unknown,0,2013-02-21 12:00:00
5:55 AM,43.0,30.0,60,29.96,10.0,SSE,5.8,-,N/A,,Clear,150,2013-02-21 12:55:00
6:55 AM,41.0,28.9,62,29.97,10.0,Calm,Calm,-,N/A,,Clear,0,2013-02-21 13:55:00
7:55 AM,42.1,30.0,62,30.00,10.0,SSE,4.6,-,N/A,,Partly Cloudy,160,2013-02-21 14:55:00
8:55 AM,48.9,30.0,48,30.01,10.0,East,5.8,-,N/A,,Partly Cloudy,100,2013-02-21 15:55:00
9:55 AM,54.0,30.9,41,30.02,10.0,Variable,3.5,-,N/A,,Clear,0,2013-02-21 16:55:00
10:55 AM,57.9,35.1,42,30.01,10.0,SSE,8.1,-,N/A,,Partly Cloudy,160,2013-02-21 17:55:00
11:55 AM,62.1,32.0,32,30.00,10.0,SSW,10.4,18.4,N/A,,Scattered Clouds,200,2013-02-21 18:55:00
12:55 PM,63.0,28.9,28,29.98,10.0,South,12.7,-,N/A,,Mostly Cloudy,190,2013-02-21 19:55:00
1:55 PM,64.0,26.1,24,29.96,10.0,SSW,10.4,-,N/A,,Mostly Cloudy,200,2013-02-21 20:55:00
2:55 PM,64.0,27.0,25,29.94,10.0,WSW,6.9,-,N/A,,Mostly Cloudy,250,2013-02-21 21:55:00
3:55 PM,63.0,27.0,26,29.93,10.0,WNW,6.9,-,N/A,,Mostly Cloudy,300,2013-02-21 22:55:00
4:55 PM,62.1,28.0,28,29.93,10.0,West,9.2,-,N/A,,Mostly Cloudy,280,2013-02-21 23:55:00
5:55 PM,61.0,27.0,27,29.94,10.0,NW,3.5,-,N/A,,Mostly Cloudy,320,2013-02-22 00:55:00
6:55 PM,60.1,26.1,27,29.97,10.0,NW,5.8,-,N/A,,Mostly Cloudy,320,2013-02-22 01:55:00
7:55 PM,55.0,39.0,55,29.99,10.0,East,9.2,-,N/A,,Scattered Clouds,90,2013-02-22 02:55:00
8:55 PM,53.1,39.0,59,30.02,10.0,ENE,11.5,-,N/A,,Scattered Clouds,70,2013-02-22 03:55:00
9:55 PM,52.0,39.0,61,30.04,10.0,NE,10.4,-,N/A,,Partly Cloudy,50,2013-02-22 04:55:00
10:55 PM,52.0,39.0,61,30.05,10.0,ENE,8.1,-,N/A,,Partly Cloudy,70,2013-02-22 05:55:00
11:55 PM,50.0,39.0,66,30.05,10.0,NE,5.8,-,N/A,,Clear,40,2013-02-22 06:55:00